This demonstration page uses our WeatherBlox Daily Observations layout. Learn more.

Left ArrowRight Arrow

Hourly Observations for July 14, 2021

Temp ( °F °C ) Dew Point ( °F °C ) Humidity (%) Winds ( mph kmh ) Pressure ( in mb ) Visibility ( mi km ) Precip ( " mm )
12:56 am 00:56 Mostly Cloudy 74 23.3 69 20.6 85 85 ESE 12 19 29.91 1013 10 16 0.00 0.00
1:56 am 01:56 Clear 76 24.4 67 19.4 74 74 SE 16 26 29.87 1012 10 16 0.00 0.00
2:54 am 02:54 Clear with Nearby Thunderstorms 75 24 66 19 74 74 SW 14 22 29.88 1012 10 16 0.00 0.00
2:56 am 02:56 Mostly Clear with Nearby Thunderstorms 75 23.9 66 18.9 74 74 SW 14 22 29.92 1013 9 14 0.00 0.00
3:30 am 03:30 Mostly Cloudy with Thunderstorms 70 21 66 19 88 88 W 18 30 29.92 1013 2 3 0.10 2.54
3:40 am 03:40 Cloudy with Thunderstorms 70 21 64 18 83 83 WSW 9 15 29.94 1014 3 5 0.12 3.05
3:56 am 03:56 Cloudy with Thunderstorms 69 20.6 66 18.9 90 90 S 15 24 29.96 1014 5 8 0.13 3.30
4:04 am 04:04 Cloudy with Thunderstorms 72 22 64 18 78 78 S 15 24 29.90 1013 5 8 0.02 0.51
4:48 am 04:48 Cloudy with Thunderstorms 70 21 66 19 88 88 SE 10 17 29.87 1011 5 8 0.04 1.02
4:56 am 04:56 Cloudy with Thunderstorms 68 20 66 18.9 93 93 SE 21 33 29.85 1011 6 10 0.04 1.02
5:09 am 05:09 Mostly Cloudy 68 20 64 18 88 88 SSE 16 26 29.84 1010 10 16 0.01 0.25
5:26 am 05:26 Mostly Clear with Nearby Thunderstorms 70 21 64 18 83 83 SSE 14 22 29.83 1010 10 16 0.01 0.25
5:56 am 05:56 Cloudy with Nearby Thunderstorms 69 20.6 65 18.3 87 87 SSE 12 19 29.89 1012 8 13 0.01 0.25
6:56 am 06:56 Cloudy with Thunderstorms 71 21.7 65 18.3 81 81 VRB 3 6 29.91 1013 6 10 0.09 2.29
7:56 am 07:56 Cloudy with Nearby Thunderstorms 70 21.1 66 18.9 87 87 SSE 16 26 29.91 1013 9 14 0.16 4.06
8:17 am 08:17 Mostly Cloudy 70 21 66 19 88 88 SE 13 20 29.87 1011 10 16 0.00 0.00
8:56 am 08:56 Partly Cloudy 70 21.1 66 18.9 87 87 SE 17 28 29.85 1011 10 16 0.01 0.25
9:56 am 09:56 Sunny 72 22.2 66 18.9 82 82 SSE 13 20 29.88 1012 10 16 0.00 0.00
10:56 am 10:56 Sunny 75 23.9 67 19.4 76 76 S 12 19 29.88 1012 10 16 0.00 0.00
11:56 am 11:56 Sunny with Light Rain 73 22.8 66 18.9 79 79 SSW 8 13 29.91 1013 10 16 0.00 0.00
12:56 pm 12:56 Sunny 76 24.4 68 20 77 77 S 7 11 29.91 1013 10 16 0.00 0.00
1:56 pm 13:56 Sunny 79 26.1 68 20 69 69 S 15 24 29.88 1012 10 16 0.00 0.00
2:56 pm 14:56 Sunny 79 26.1 68 20 69 69 Calm 29.91 1013 10 16 0.00 0.00
3:56 pm 15:56 Partly Cloudy 80 26.7 68 20 67 67 NE 6 9 29.92 1013 10 16 0.00 0.00
4:56 pm 16:56 Sunny 81 27.2 70 21.1 69 69 NNE 14 22 29.91 1013 10 16 0.00 0.00
5:56 pm 17:56 Sunny 78 25.6 70 21.1 76 76 NNE 15 24 29.91 1013 10 16 0.00 0.00
6:56 pm 18:56 Sunny 76 24.4 69 20.6 79 79 NNE 16 26 29.93 1013 10 16 0.00 0.00
7:56 pm 19:56 Mostly Cloudy 74 23.3 68 20 82 82 NE 15 24 29.94 1014 10 16 0.00 0.00
8:06 pm 20:06 Mostly Cloudy with Thunderstorms 73 23 68 20 83 83 ENE 13 20 29.90 1013 10 16 0.00 0.00
8:46 pm 20:46 Cloudy with Nearby Thunderstorms 72 22 66 19 83 83 NE 7 11 29.92 1013 10 16 0.00 0.00
8:56 pm 20:56 Mostly Cloudy with Nearby Thunderstorms 72 22.2 67 19.4 84 84 NE 10 17 29.96 1014 10 16 0.00 0.00
9:07 pm 21:07 Cloudy 72 22 66 19 83 83 NE 13 20 29.91 1013 10 16 0.00 0.00
9:17 pm 21:17 Mostly Cloudy with Nearby Thunderstorms 72 22 66 19 83 83 NE 10 17 29.91 1013 10 16 0.00 0.00
9:35 pm 21:35 Mostly Cloudy 72 22 66 19 83 83 NE 14 22 29.91 1013 10 16 0.00 0.00
9:56 pm 21:56 Mostly Cloudy 70 21.1 65 18.3 84 84 NE 14 22 29.96 1015 10 16 0.00 0.00
10:56 pm 22:56 Cloudy 69 20.6 66 18.9 90 90 ENE 6 9 29.98 1015 10 16 0.00 0.00
11:56 pm 23:56 Cloudy 68 20 66 18.9 93 93 NE 7 11 29.98 1015 10 16 0.00 0.00

Powered by AerisWeather